Regional Weather Roundup
Issued by NWS Green Bay, WI

Home | Current Version | Previous Version | Graphics & Text | Print | Product List | Glossary Off
Versions: 1 2 3 4 5 6 7 8 9 10 11 12 13 14 15 16 17 18 19 20 21 22 23 24 25 26 27 28 29 30 31 32 33 34 35 36 37 38 39 40 41 42 43 44 45 46 47 48 49 50

000
ASUS43 KGRB 252100
RWRGRB

NORTH-CENTRAL AND NORTHEAST WISCONSIN REGIONAL WEATHER ROUNDUP
NATIONAL WEATHER SERVICE GREEN BAY WI
400 PM CDT THU MAY 25 2017

WIZ005-009-010>012-018-019-252200-
NORTH CENTRAL WISCONSIN

CITY           SKY/WX    TMP DP  RH WIND       PRES   REMARKS
IRONWOOD       SUNNY     67  47  48 N12       29.69S
MANITOWISH WTR NOT AVBL
ARBOR VITAE    NOT AVBL
EAGLE RIVER    NOT AVBL
LAND O LAKES   NOT AVBL
RHINELANDER    PTSUNNY   72  47  40 MISG      29.68F
PHILLIPS       NOT AVBL
ANTIGO         NOT AVBL
TOMAHAWK       NOT AVBL
MERRILL        NOT AVBL
$$

WIZ013-073-252200-
NORTHEAST WISCONSIN

CITY           SKY/WX    TMP DP  RH WIND       PRES   REMARKS
IRON MOUNTAIN  MOSUNNY   72  44  36 VRB7      29.66F
MARINETTE      SUNNY     66  51  58 E7        29.67S
$$

WIZ017-030-035>037-045-252200-
CENTRAL WISCONSIN

CITY           SKY/WX    TMP DP  RH WIND       PRES   REMARKS
MEDFORD        NOT AVBL
WAUSAU         MOSUNNY   72  49  44 SW7       29.65S
MOSINEE        MOSUNNY   72  48  43 S3        29.68S
MARSHFIELD     MOSUNNY   72  50  45 SE7       29.66F
WISC RAPIDS    MOSUNNY   74  50  42 VRB3      29.67F
STEVENS POINT  NOT AVBL
WAUPACA        NOT AVBL
SHAWANO        NOT AVBL
CLINTONVILLE   NOT AVBL
WAUTOMA        MOSUNNY   71  51  49 VRB5      29.67F
$$

WIZ038-039-048-051-252200-
FOX VALLEY

CITY           SKY/WX    TMP DP  RH WIND       PRES   REMARKS
NWS GREEN BAY  SUNNY     68  54  60 NE13      29.67F
APPLETON       MOSUNNY   70  46  43 NE14G21   29.66S
OSHKOSH        SUNNY     68  52  56 NE9       29.67S
FOND DU LAC    SUNNY     70  52  52 NE13      29.67S
$$

WIZ022-050-052-252200-
EAST CENTRAL WISCONSIN

CITY           SKY/WX    TMP DP  RH WIND       PRES   REMARKS
EPHRAIM        NOT AVBL
WASHINGTON ISL NOT AVBL
STURGEON BAY   SUNNY     66  51  58 NE12      29.67S
MANITOWOC      NOT AVBL
SHEBOYGAN      PTSUNNY   61  55  81 NE15      29.67R
$$

LMZ563-521-522-541>543-252200-
LAKESHORE

STATION/POSITION TIME  TEMP    WIND        PRES    VSBY  WAVE
                       AIR SEA DIR/SP/G                  HT/PER
                 (UTC) (F)     (DEG/KT/KT) (MB)    (MI)  (FT/S)
SHEBOYGAN LKSHOR 2000   49      20/ 15/ 17 1004.6R
KEWAUNEE LKSHORE 2030   56      20/  6/  9 1004.6R
NORTHPORT PIER   2040   58     100/  4/  6 1004.7S
N MID LAKE BUOY  1950   47 41   40/  6/  6 1005.4F         1
CHAMBERS ISLAND  2040   62      10/  5/  7 1004.4F
MENOMINEE LKSHOR 2024           50/  5/  6 1004.0
$$




USA.gov is the U.S. government's official web portal to all federal, state and local government web resources and services.